AEROCUBE 8D

Last updated on Tue Jul 01 2025 00:03:44 GMT+0000 (Coordinated Universal Time)

1 41852U 16067E 25181.49071465 .00004583 00000+0 23018-3 0 9999 2 41852 98.1088 20.7132 0002589 262.3970 97.6968 15.17847493472607
UTC large
Height (km)
Speed (km/s)
/
Latitude / Longitude
Inclination (degrees)
Orbital Period (minutes)
Azimuth
Elevation
Range (km)
Doppler Factor

Next 0 passes for location: London (51.5072 / 0.1276)

Sorry there are no passes over London.